STARLINK-11523 [DTC] (62565 NORAD) Tracking and Keplerian Element Data

This shows tracking and keplerian element data for the satellite.

Feedback or suggestion? Click here.




ElementValue
Catalog62565
NameSTARLINK-11523 [DTC]
Epoch Orbit490
Epoch Day35.16668981
Epoch Year2025
RAAN25.4835
Inclination43.0011
Eccentricity0.0001444
Argument of Perigee283.9813
Mean Anonmoly197.6668
Mean Motion15.77897542
Decay Rate-0.00089272
L11 62565U 25006M 25035.16668981 -.00089272 00000+0 -51455-3 0 9999
L22 62565 43.0011 25.4835 0001444 283.9813 197.6668 15.77897542 4900



Live tracking and technical data element details for STARLINK-11523 [DTC] (NORAD 62565). STARLINK-11523 [DTC] can be tracked NOW for your location showing map with azimuth and elevation plus other details from your city location.







IsCatalogInMostPopularTable: catalog: 62565, numindb: 15
Update: records affected: 1



GetName: 62565 STARLINK-11523 [DTC]

Hit Count: updated at: Sun, 18 May 2025 22:01:17 GMT